KGPM

Details ICAO KGPM
Name GRAND PRAIRIE MUNI
Region United States
Timezone America/Chicago (UTC-5.0)
Plans Departing 12
Arriving 10
Stats Elevation 587 ft / 179 m (AMSL)
Location 32.698782° -97.046917°
Runways 1
Magnetic Variation 3.393° E
Sunrise 2018-05-25 11:25:11 UTC / 2018-05-25 06:25:11 Local
Sunset 2018-05-26 01:27:59 UTC / 2018-05-25 20:27:59 Local
Advertisement - Login to hide

Runways

ID Width Length Bearing (true) Bearing (mag) Surface Threshold Offset Overrun Length
17 75 ft / 23 m 4,013 ft / 1,223 m 180.34° 176.95° Concrete 0 ft / 0 m 0 ft / 0 m
35 75 ft / 23 m 4,013 ft / 1,223 m 0.34° 356.95° Concrete 0 ft / 0 m 0 ft / 0 m

Map

Weather


0- 5 10 15 20 25 30 35+ Temperature / ° C

Clouds and Precipitation
Forecast for 2018-05-25 12:00 UTC. Updated 4 hours ago

Ground ~20,000 ft ~40,000 ft Winds

METAR

KGPM 251450Z 18008KT 10SM SKC 29/21 A2999

TAF

Not found

Frequencies

Recorded 118.47 MHz AWOS 3
Ground 121.15 MHz GND
Approach 135.97 MHz RGNL APP/DEP
Unicom 128.55 MHz CTAF/UNICOM
Tower 128.55 MHz TWR
Warning: Do not use this data for real-world aviation or navigation. No guarantee of current accuracy is given.